Location: *
(46.3500°N, 10.9000°E)
Time: 21:15:31
(UTC+00:00)

Explorer 7 - Pass Details

Date: 23 April 2021
Orbit: 484 x 677 km, 50.3° (Epoch: 05 May)

Event Time Altitude Azimuth Distance (km) Brightness Sun altitude
Rises 00:04:35 0° 292° (WNW) 2,812 - -30.1°
Reaches altitude 10° 00:06:52 10° 286° (WNW) 1,941 - -30.0°
Maximum altitude 00:11:07 44° 215° (SW) 865 - -29.8°
Drops below altitude 10° 00:15:35 10° 143° (SE) 2,040 - -29.5°
Sets 00:18:02 0° 137° (SE) 2,971 - -29.4°
